RH
10 16 23 20 20 26 28 40 49 62 57 72 64 66 70 65 70 66 66 66 65 60 54 54 51 44 52 60 69 68 71 81 80 80 82 68 65 66 83 80 69 59 73 87
12 14 12 11 13 18 27 35 55 73 72 77 58 63 73 65 64 60 67 64 61 61 69 51 51 49 56 68 67 81 80 85 79 79 80 72 70 71 76 78 64 62 59 71
11 10 7 8 12 15 26 32 51 56 46 36 49 65 75 64 63 61 58 58 60 64 71 63 62 51 63 65 74 72 78 87 79 76 81 81 79 82 85 79 80 72 70 74
10 7 7 9 12 15 32 22 31 38 44 56 40 78 80 76 72 64 52 59 57 57 70 71 63 52 62 66 69 75 76 84 80 81 76 70 70 74 81 77 79 76 72 68
11 9 9 15 12 16 25 19 27 27 38 42 36 61 74 82 82 69 58 52 49 49 69 68 65 55 55 64 70 76 81 88 84 85 83 78 76 77 69 73 76 83 75 69
11 10 12 15 11 12 13 23 29 33 41 59 52 56 90 87 74 66 57 49 47 50 61 61 57 59 60 62 67 75 84 90 88 86 78 79 78 85 80 87 75 85 79 77
12 12 11 10 15 13 15 23 42 62 61 62 57 52 77 65 59 59 58 53 46 46 63 64 66 69 64 72 71 74 81 86 88 82 83 81 85 79 77 86 73 78 84 79
20 19 12 10 14 20 19 22 34 59 59 62 46 70 67 64 60 54 46 51 47 48 48 58 63 51 61 61 67 72 80 78 87 85 86 90 86 94 90 80 82 80 75 74
25 16 9 8 10 14 16 28 18 23 34 59 72 70 48 56 58 62 67 59 59 50 42 57 54 48 52 50 64 72 76 76 79 78 90 87 90 89 76 72 86 89 82 70
21 25 20 9 9 10 15 14 26 48 63 62 81 86 82 76 78 76 77 77 60 46 45 55 54 59 61 41 61 70 74 78 77 72 87 83 85 86 88 90 81 88 83 81
30 33 24 17 34 36 34 26 49 64 82 83 90 86 75 83 82 91 89 84 79 44 42 52 50 54 69 55 57 68 74 74 74 71 76 79 84 84 90 90 85 84 83 87
25 27 40 43 33 29 33 39 45 58 84 87 90 87 76 78 78 85 90 88 80 82 57 65 53 72 83 87 89 83 71 72 70 68 72 71 81 88 92 87 86 85 84 87
25 36 43 52 44 37 38 34 36 42 70 86 82 81 64 68 79 80 88 93 83 92 84 92 93 97 97 96 92 97 85 68 65 66 71 70 78 78 89 89 90 88 88 87
32 27 34 37 49 50 45 34 38 48 60 72 74 77 67 68 71 80 83 79 79 74 81 94 98 98 97 97 96 97 97 95 96 72 69 68 74 70 69 74 76 91 91 90
22 31 32 24 30 34 32 28 28 44 60 64 72 54 61 76 69 80 77 80 77 78 85 91 95 97 96 98 98 98 98 96 97 95 92 73 69 68 78 88 86 92 91 93
24 31 35 33 21 32 33 36 33 36 42 58 60 66 61 62 63 79 76 85 88 92 83 85 91 93 91 92 96 96 95 96 98 98 94 93 88 87 87 89 92 91 90 93
32 40 42 44 31 31 44 40 38 38 48 44 62 67 70 80 77 82 80 83 88 92 95 96 94 95 95 98 97 97 97 98 98 98 98 95 92 88 89 90 90 89 90 92
31 37 42 46 41 47 49 37 30 34 45 67 70 68 62 70 80 69 68 80 86 90 92 96 93 95 98 96 93 94 95 98 98 98 98 97 94 91 88 90 90 93 94 92
18 39 41 47 49 40 41 36 31 46 75 61 74 73 63 67 74 75 61 71 83 86 91 96 96 96 95 91 95 95 95 94 96 98 98 99 97 96 96 96 93 92 95 95
25 35 35 37 52 57 55 31 26 33 92 69 64 61 77 77 93 92 62 62 73 77 84 87 91 93 95 96 93 97 96 95 95 92 95 97 97 98 98 98 99 99 99 99
42 46 44 46 45 52 40 34 29 50 76 63 60 71 72 85 81 73 64 70 73 80 84 81 84 95 95 95 96 98 98 99 97 96 95 98 98 99 98 99 99 99 99 99
49 55 47 45 53 71 45 40 56 56 52 64 73 65 69 84 67 64 67 69 75 82 80 79 84 92 95 95 98 99 99 98 97 97 98 99 99 99 99 99 99 98 98 99
45 44 49 40 65 54 44 47 51 42 53 53 56 67 62 64 64 58 69 73 79 82 87 74 86 91 94 96 98 99 99 99 99 97 99 99 99 99 100 99 100 100 99 99
45 49 58 51 56 52 45 45 39 30 50 57 54 38 41 54 52 53 62 69 80 87 89 79 84 91 97 97 98 99 99 98 98 99 99 99 99 99 99 99 99 99 98 97
50 49 50 49 49 49 45 42 30 30 38 36 36 38 38 44 53 63 77 83 85 88 89 83 84 90 96 97 98 99 98 97 97 98 98 96 92 93 96 93 91 89 88 86
57 54 51 53 55 65 48 46 39 34 40 40 41 42 36 50 49 72 83 87 90 89 80 88 84 87 92 95 96 98 98 97 98 99 98 98 96 91 89 86 83 89 91 93
Wind_Speed
8 2 6 13 13 7 5 5 8 6 6 8 14 9 12 10 7 7 4 8 8 11 3 9 8 15 14 15 14 15 10 7 5 2 2 1 3 2 2 4 6 6 5 8
4 8 13 14 15 10 10 9 11 8 12 18 10 10 11 14 13 11 8 8 10 5 2 10 10 13 15 10 12 11 11 8 5 4 2 2 3 2 3 4 4 4 6 3
9 11 15 15 13 8 4 6 6 7 12 9 7 5 10 10 6 6 8 8 5 6 4 6 6 16 13 12 10 13 11 8 6 6 2 1 2 3 2 2 3 3 5 6
8 12 10 11 10 6 5 11 9 5 5 6 9 5 8 12 12 13 14 11 12 8 4 6 3 8 15 13 10 11 12 9 7 7 4 5 4 5 4 4 3 4 5 4
10 9 10 2 7 5 1 6 2 6 4 3 6 1 5 13 13 17 18 14 13 10 10 7 8 7 14 16 13 11 12 8 7 6 6 5 4 3 3 3 4 4 4 3
9 6 3 2 6 8 11 3 4 4 1 2 4 2 2 10 16 16 16 16 17 13 13 14 12 8 10 13 14 12 12 9 8 7 6 8 6 5 3 2 5 4 3 4
9 10 4 4 6 10 8 3 3 3 4 5 5 5 7 13 9 12 19 17 18 17 17 14 12 9 12 15 16 13 13 12 8 8 7 6 5 5 4 6 4 4 3 1
8 6 8 8 6 4 7 6 6 2 5 7 7 5 4 6 15 8 10 17 17 15 18 19 14 11 11 19 18 17 15 15 10 8 8 6 7 4 4 5 2 4 4 4
6 6 8 7 5 1 9 4 10 4 6 4 1 5 5 13 16 18 16 8 17 18 16 21 18 14 11 16 23 20 17 15 14 13 7 7 7 7 5 6 4 4 4 4
5 3 2 5 6 5 6 6 7 6 5 4 3 2 7 11 17 17 19 20 15 16 15 18 18 16 8 17 18 20 18 17 17 14 10 8 7 6 6 5 4 6 2 4
4 3 4 4 7 5 7 6 6 8 4 2 3 6 4 5 11 16 20 22 22 17 14 18 19 19 11 9 10 18 16 16 14 13 11 9 7 7 6 6 5 5 4 6
6 2 4 3 4 6 4 4 5 5 2 2 4 6 4 4 8 12 21 25 9 9 7 7 16 11 7 7 8 10 14 15 16 15 13 11 9 7 7 7 7 6 7 6
5 3 3 9 10 7 5 3 4 3 6 6 6 4 1 4 6 9 13 17 8 4 2 14 12 10 10 6 6 13 7 14 14 12 14 12 12 11 8 7 7 8 7 7
3 2 5 5 7 4 2 2 3 4 1 3 1 3 3 2 6 10 12 16 4 5 8 11 8 9 8 8 7 10 8 8 9 4 12 13 12 14 12 12 11 7 7 7
3 4 5 9 7 8 7 8 8 7 5 5 10 8 6 7 7 2 2 7 5 8 9 8 6 3 6 9 1 10 8 5 6 9 13 8 10 9 8 11 11 8 8 7
4 5 5 6 7 9 7 9 9 8 4 3 2 1 4 3 3 3 5 5 7 10 8 6 4 4 5 5 4 6 7 3 4 6 10 19 7 7 7 7 8 8 8 7
0 3 4 5 5 1 4 6 7 9 6 5 4 6 5 2 2 2 4 3 4 5 7 9 8 6 6 6 4 5 5 4 5 6 4 17 9 8 6 5 5 6 6 6
2 0 3 4 6 5 1 2 5 6 9 9 10 4 6 4 5 5 4 5 4 3 4 7 8 7 7 5 2 2 3 6 7 7 6 11 16 5 5 6 6 5 4 5
4 3 1 3 3 2 2 2 4 3 6 9 10 12 6 5 5 4 6 6 6 7 6 4 4 4 4 5 6 5 5 5 4 4 8 8 5 8 7 7 5 3 1 2
5 4 6 1 2 4 7 3 3 10 8 16 14 9 3 4 3 3 7 6 6 8 5 6 5 5 6 5 5 5 3 2 2 5 6 7 6 4 3 5 4 4 5 6
1 2 3 3 5 4 3 3 6 3 5 18 11 5 6 1 4 4 7 8 7 7 7 7 7 6 5 5 3 5 5 3 4 5 4 6 7 5 4 6 3 2 4 7
6 5 4 2 2 3 2 5 6 6 14 19 16 12 12 8 4 6 8 7 7 7 7 6 5 4 6 5 5 3 6 7 3 7 7 6 7 7 3 6 3 4 4 6
2 5 3 2 6 6 2 5 3 2 4 10 17 18 14 14 7 6 8 7 9 8 6 4 4 5 4 5 5 4 5 6 4 6 7 7 7 6 4 4 5 3 2 3
6 5 4 4 4 2 3 4 4 7 13 9 4 8 6 12 9 8 8 10 7 6 5 4 5 4 4 5 4 4 5 4 6 5 8 8 8 8 8 6 5 4 4 2
3 7 3 2 2 2 4 2 7 7 10 10 12 10 9 8 7 9 12 10 7 6 6 4 5 4 3 3 4 4 5 5 7 7 7 7 6 6 6 7 5 4 2 2
1 3 2 3 5 4 1 2 2 7 9 10 12 9 7 10 8 11 9 7 6 5 6 5 4 5 3 3 2 3 4 5 6 6 5 4 4 4 4 5 4 10 8 10
Wind_Direction
233 177 226 241 245 201 202 166 148 194 214 180 202 210 188 197 193 175 196 164 179 205 134 181 165 143 138 135 144 153 154 171 157 146 125 181 142 85 120 122 130 113 108 116
288 225 248 250 254 236 187 188 102 62 322 209 198 212 169 187 203 177 174 196 192 130 37 201 175 146 146 145 141 139 156 164 166 157 177 172 151 132 169 141 144 182 136 141
208 238 228 255 272 275 48 260 141 160 218 231 177 214 161 198 178 203 197 180 171 140 149 160 163 150 148 161 162 146 153 165 175 177 160 220 66 71 92 150 158 203 162 190
217 266 251 231 267 266 191 152 124 173 200 227 171 251 187 170 194 201 218 174 182 170 203 164 180 189 162 168 166 156 157 166 186 183 181 194 172 156 202 183 169 172 205 195
249 248 275 216 240 335 216 88 171 184 235 259 257 202 226 146 211 210 208 182 184 183 157 210 205 192 178 161 165 164 158 170 190 176 194 195 157 161 176 168 146 186 185 196
260 302 354 9 308 299 285 143 218 158 138 357 337 83 161 179 216 208 205 197 182 174 176 208 219 145 187 173 168 166 167 172 188 186 181 175 159 138 105 208 180 182 184 209
237 238 196 216 234 265 262 3 334 346 14 226 357 12 233 210 225 212 203 197 186 181 177 211 213 160 184 180 177 172 176 172 185 185 181 182 136 147 151 159 167 168 174 181
227 241 166 220 213 226 231 194 173 171 151 276 358 6 276 38 18 312 237 194 188 189 184 197 205 196 176 186 179 175 178 175 175 177 189 178 174 154 193 165 220 156 166 172
345 62 179 175 187 227 284 252 222 229 213 133 144 330 332 9 6 7 11 191 188 191 196 186 196 198 194 185 183 173 179 180 177 177 182 177 175 182 196 209 200 167 178 170
301 307 163 187 162 219 205 257 357 4 17 339 313 152 258 350 330 349 351 326 296 189 185 195 194 199 213 197 175 171 176 179 179 178 170 172 172 184 191 192 189 118 135 118
284 72 332 118 21 32 355 339 37 98 44 127 23 298 223 1 340 353 333 322 292 246 203 181 186 191 185 158 170 177 178 176 176 179 178 169 175 186 192 185 180 172 176 172
16 325 27 130 22 27 322 73 129 107 217 142 170 254 137 145 28 10 334 306 19 346 288 173 167 156 149 148 84 192 180 183 183 174 178 182 179 186 186 189 188 203 194 193
340 341 21 349 356 344 110 315 90 30 132 185 160 259 278 335 42 9 306 242 137 275 33 65 46 48 58 31 97 24 256 195 188 172 175 183 189 189 191 202 193 195 195 190
91 253 206 199 182 175 225 204 123 160 125 188 332 252 276 120 224 176 256 347 3 87 81 113 123 90 75 60 90 73 312 27 352 220 173 186 186 199 196 198 200 195 187 193
155 274 280 283 189 172 192 229 213 186 188 155 188 164 223 199 225 289 338 350 358 76 54 64 79 119 126 123 160 85 283 32 17 5 350 197 195 199 187 180 189 180 185 191
209 248 289 295 339 181 219 78 65 73 357 44 203 97 179 214 223 269 59 13 1 8 93 98 134 179 148 150 108 53 301 280 69 31 345 304 180 197 207 184 178 173 196 194
79 83 44 304 354 328 288 163 180 179 180 188 129 220 122 305 165 33 110 121 42 26 34 38 37 59 57 53 66 144 187 175 190 131 40 309 264 171 180 182 162 160 173 172
142 231 106 274 325 302 218 261 242 186 122 90 55 108 212 174 129 94 79 103 115 88 65 58 58 43 29 39 35 131 264 195 170 117 137 270 284 236 185 184 190 207 186 206
225 160 155 136 267 253 75 15 8 89 146 135 164 240 227 162 93 83 83 85 93 86 75 97 87 84 48 21 347 347 0 26 68 155 188 235 284 298 243 210 170 117 31 290
293 129 120 72 265 299 225 256 228 159 136 166 181 191 168 152 134 218 148 122 91 62 64 74 80 67 56 33 1 328 302 358 229 253 194 217 218 209 207 101 95 101 87 72
45 22 158 242 227 101 280 273 299 19 203 165 139 138 114 355 226 162 94 83 96 104 70 58 53 51 40 10 2 316 317 338 257 166 124 101 92 98 100 84 57 79 96 93
191 158 210 240 258 139 291 51 89 211 109 141 157 163 139 160 169 140 129 128 113 85 70 76 74 45 15 356 339 28 15 331 6 105 109 104 99 89 75 101 64 63 99 95
178 160 167 102 185 203 93 138 208 100 148 139 143 170 166 153 156 147 127 116 105 102 94 84 87 70 1 356 5 21 345 332 19 102 98 93 86 88 74 87 94 57 62 96
359 29 92 85 44 206 184 140 32 56 91 96 111 98 93 131 148 150 133 120 98 104 107 77 68 54 15 1 1 355 327 359 38 85 95 85 76 71 42 45 35 38 30 107
259 343 83 92 59 40 56 90 138 88 101 100 83 78 64 85 89 124 108 119 123 125 119 109 112 94 43 29 11 357 352 50 84 78 77 80 82 77 73 62 39 76 13 318
330 330 158 214 169 110 237 311 25 129 129 124 117 103 95 107 91 91 108 116 126 133 137 141 128 124 115 87 80 55 26 48 76 74 65 73 85 101 117 111 89 53 65 45